STARLINK-31613, 59431

Orbit data source: Space-Track

STARLINK-31613, 59431 is a payload satellite owned by SpaceX/Seattle (US) in LEO that was launched on Sun, 07 Apr 2024 UTC via an FALCON 9 launch vehicle from the Air Force Western Test Range (AFWTR). Payload-class satellites include a variety of spacecraft equipped with specific instruments for various scientific and technological missions. These include communications satellites like Starlink; space stations such as the ISS; scientific satellites like the Hubble; Earth observation satellites from companies like Planet Labs, Umbra, and HawkEye 360; GPS; miniature CubeSats for education and research; and military/defense satellites.

Loading next visibility...
Identifier
59431, 2024-065L
Orbit
LEO
Country
Flag of USUS
Related business
Manufacturer
SpaceX/Seattle
Mission
Operational Commercial Communications
Bus & Motor
STARLINK V2M, Unknown motor
Mass
730 kg wet, ~700 kg dry
Launch date (UTC)
2024-04-07 (2 years ago)
Launch vehicle
FALCON 9
Launch site
Air Force Western Test Range (AFWTR)
Object type
Payload
Rocket body
Debris
Shape & HBR
Box + 2 Pan, 17.7 m
Radar Cross Section
33.884 m², Large (>1 m²)

Expand to show TLE details & history
Last TLE update: 2 days ago

TLE from 2 days ago
0 STARLINK-31613
1 59431U 24065L   26171.40604992  .00002664  00000-0  89955-4 0  9998
2 59431  53.1595 164.0116 0001241  87.4783 272.6361 15.34399091124666
Epoch: 2026-06-20T09:44Z
TLE epoch observation values (Epoch: 2026-06-20T09:44:42.713Z)
Latitude
-0.00005°
Longitude
109.21246°
Altitude
463.568 km
Speed
7.636 km/s
True Right ascension
10h 56m 02s
True Declination
0° 00' 00"
Sunlit
Object was in daylight at epoch
Visualization orbit readout
Latitude
Unknown
Longitude
Unknown
Altitude
Unknown
Speed
Unknown
Apparent Right ascension
Unknown
Apparent Declination
Unknown
Sunlit
N/A
Visualization observer readout
Local Sidereal Time
21:34:31
Azimuth
Unknown
Elevation
Unknown
Doppler factor
Unknown
Orbital elements
Apogee altitude
463.812 km
Perigee altitude
462.114 km
Semi-major axis
6,841.1 km
Eccentricity
0.00012
Inclination
53.1595°
RAAN
164.0116°
Arg. of periapsis
87.4783°
True anomaly
272.62189°
Mean anomaly
272.6361°
Eccentric anomaly
272.629°
Mean motion
3.83579 °/min
Orbital period
93.85 mins
BSTAR
0.000089955
Loading maneuver chart data...
Computing Atmospheric mass density...
Loading historical data...
Loading historical data...
Loading historical data...
Loading historical data...
Loading historical data...
Loading historical data...
Loading historical data...

Documentation

Showing up to 5 results
|